Weather History for Kansas City, MO

Change the Weather History Date:

Tuesday, June 18, 2013

  Actual Average Record
Temperature  
Mean Temperature 77 °F -  
Max Temperature 87 °F 81 °F 97 °F (2012)
Min Temperature 68 °F 64 °F 53 °F (2000)
Cooling Degree Days 12    
Growing Degree Days 27 (Base 50)    
Moisture  
Dew Point 63 °F    
Average Humidity 67    
Maximum Humidity 90    
Minimum Humidity 41    
Precipitation  
Precipitation 0.00 in - - ()
Sea Level Pressure  
Sea Level Pressure 29.98 in    
Wind  
Wind Speed 4 mph (NNE)    
Max Wind Speed 12 mph    
Max Gust Speed 16 mph    
Visibility 10 miles    
Events      
Averages and records for this station are not official NWS values.
T = Trace of Precipitation, MM = Missing Value Source: NWS Daily Summary

Daily Weather History Graph

Daily Weather History Graph

Search for Another Location

Airport:

Trip Planner

Search our weather history database for the weather conditions in past years. The results will help you decide how hot, cold, wet, or windy it might be!

Date:

Astronomy

Jun. 18, 2013 Rise Set
Actual Time 5:52 AM CDT 8:47 PM CDT
Civil Twilight 5:19 AM CDT 9:19 PM CDT
Nautical Twilight 4:39 AM CDT 10:00 PM CDT
Astronomical Twilight 3:52 AM CDT 10:47 PM CDT
Moon 3:34 PM CDT 1:58 AM CDT
Length of Visible Light 15h 59m
Length of Day
14h 55m
Waxing Gibbous, 71% of the Moon is Illuminated
Jun 18
Waxing Gibbous
Jun 23
Full
Jun 29
Last Quarter
Jul 8
New
Jul 15
First Quarter

Hourly Weather History & Observations

Time (CDT) Temp. Heat Index Dew Point Humidity Pressure Visibility Wind Dir Wind Speed Gust Speed Precip Events Conditions
12:54 AM 69.1 °F - 64.9 °F 87% 29.96 in 10.0 mi SSW 4.6 mph - N/A   Clear
1:54 AM 70.0 °F - 66.0 °F 87% 29.98 in 10.0 mi Calm Calm - N/A   Clear
2:54 AM 69.1 °F - 64.9 °F 87% 29.97 in 10.0 mi SW 4.6 mph - N/A   Clear
3:54 AM 69.1 °F - 64.9 °F 87% 29.98 in 10.0 mi Calm Calm - N/A   Clear
4:54 AM 69.1 °F - 64.0 °F 84% 29.97 in 10.0 mi Calm Calm - N/A   Clear
5:54 AM 68.0 °F - 64.0 °F 87% 29.97 in 10.0 mi Calm Calm - N/A   Clear
6:54 AM 68.0 °F - 64.9 °F 90% 29.98 in 9.0 mi SW 3.5 mph - N/A   Clear
7:54 AM 73.0 °F - 66.0 °F 79% 29.99 in 10.0 mi Calm Calm - N/A   Clear
8:54 AM 75.9 °F - 66.9 °F 74% 29.99 in 10.0 mi NW 4.6 mph - N/A   Clear
9:54 AM 80.1 °F 82.3 °F 66.9 °F 64% 29.99 in 10.0 mi NW 6.9 mph - N/A   Clear
10:54 AM 82.9 °F 83.2 °F 60.1 °F 46% 30.01 in 10.0 mi NE 8.1 mph - N/A   Clear
11:54 AM 84.0 °F 84.0 °F 60.1 °F 44% 30.00 in 10.0 mi NE 8.1 mph - N/A   Clear
12:54 PM 84.0 °F 83.8 °F 59.0 °F 43% 30.01 in 10.0 mi NE 8.1 mph - N/A   Clear
1:54 PM 84.0 °F 83.8 °F 59.0 °F 43% 29.99 in 10.0 mi East 11.5 mph 16.1 mph N/A   Clear
2:54 PM 84.9 °F 85.0 °F 61.0 °F 44% 30.00 in 10.0 mi NE 8.1 mph - N/A   Clear
3:54 PM 86.0 °F 85.7 °F 60.1 °F 41% 29.97 in 10.0 mi Variable 5.8 mph - N/A   Scattered Clouds
4:54 PM 81.0 °F 81.6 °F 60.1 °F 49% 29.96 in 10.0 mi NE 8.1 mph - N/A   Clear
5:54 PM 78.1 °F - 62.1 °F 58% 29.97 in 10.0 mi NNE 8.1 mph - N/A   Clear
6:54 PM 77.0 °F - 61.0 °F 58% 29.98 in 10.0 mi East 3.5 mph - N/A   Partly Cloudy
7:54 PM 78.1 °F - 62.1 °F 58% 29.98 in 10.0 mi WSW 4.6 mph - N/A   Clear
8:54 PM 73.0 °F - 64.0 °F 73% 29.97 in 10.0 mi Calm Calm - N/A   Clear
9:54 PM 73.0 °F - 64.0 °F 73% 29.97 in 10.0 mi Calm Calm - N/A   Clear
10:54 PM 72.0 °F - 64.9 °F 78% 29.97 in 10.0 mi Calm Calm - N/A   Clear
11:54 PM 71.1 °F - 64.9 °F 81% 29.98 in 10.0 mi SW 3.5 mph - N/A   Clear